Location: Newark
(49.7697°N, 2.7094°E)
Time: 00:14:44
(UTC+00:00)

Oscar 19 - Visible Passes

Search period start: 03 April 2020 00:00
Search period end: 13 April 2020 00:00
Orbit: 773 x 790 km, 98.7° (Epoch: 02 April)

Date Brightness Start Highest point End Pass type
(mag) Time Alt. Az. Time Alt. Az. Time Alt. Az.
03 Apr 12.2 01:16:14 10° NE 01:20:33 27° E 01:20:33 27° E visible
03 Apr 10.9 02:55:09 10° N 03:00:09 50° WNW 03:01:07 44° WSW visible
03 Apr 12.8 04:37:50 10° NW 04:38:19 10° NW 04:38:48 10° NW visible
04 Apr 12.9 00:45:26 10° NE 00:48:17 15° E 00:48:22 15° E visible
04 Apr 10.5 02:23:05 10° NNE 02:28:19 89° WNW 02:28:56 70° SSW visible
04 Apr 12.4 04:03:40 10° NNW 04:06:56 17° NW 04:09:29 12° W visible
05 Apr 11.1 01:51:16 10° NNE 01:56:20 51° E 01:56:44 50° ESE visible
05 Apr 11.8 03:31:02 10° N 03:35:23 28° WNW 03:37:18 22° W visible
06 Apr 12.1 01:19:45 10° NE 01:24:13 28° E 01:24:34 28° E visible
06 Apr 11.0 02:58:45 10° N 03:03:43 47° WNW 03:05:07 38° WSW visible
07 Apr 12.8 00:48:49 10° NE 00:51:55 16° E 00:52:22 16° E visible
07 Apr 10.5 02:26:41 10° NNE 02:31:54 84° WNW 02:32:56 59° SSW visible
07 Apr 12.4 04:07:22 10° NNW 04:10:28 16° NW 04:13:29 10° W visible
08 Apr 11.1 01:54:50 10° NNE 01:59:56 54° E 02:00:45 49° SE visible
08 Apr 11.8 03:34:40 10° N 03:38:56 27° WNW 03:41:18 19° W visible
09 Apr 12.0 01:23:16 10° NNE 01:27:49 30° E 01:28:33 29° ESE visible
09 Apr 11.1 03:02:21 10° N 03:07:17 45° WNW 03:09:07 32° WSW visible
10 Apr 12.7 00:52:15 10° NE 00:55:34 17° E 00:56:22 16° E visible
10 Apr 10.6 02:30:16 10° NNE 02:35:29 79° WNW 02:36:55 49° SSW visible
10 Apr 12.5 04:11:03 10° NNW 04:13:59 15° NW 04:16:56 10° W visible
11 Apr 11.0 01:58:23 10° NNE 02:03:32 58° ESE 02:04:44 46° SSE visible
11 Apr 11.9 03:38:18 10° N 03:42:30 25° WNW 03:45:17 16° WSW visible
12 Apr 11.9 01:26:47 10° NNE 01:31:26 32° E 01:32:33 29° ESE visible
12 Apr 11.2 03:05:58 10° N 03:10:51 42° WNW 03:13:06 27° WSW visible
